Location: Lugrin
(46.4033°N, 6.6674°E)
Time: 01:48:20
(UTC+00:00)

Lacrosse 5 rocket - Pass Details

Date: 18 September 2020
Orbit: 460 x 636 km, 57.0° (Epoch: 31 October)

Event Time Altitude Azimuth Distance (km) Brightness Sun altitude
Rises 18:06:18 0° 253° (WSW) 2,708 6.2 -5.6°
Reaches altitude 10° 18:08:34 10° 261° (W) 1,848 5.5 -6.0°
Maximum altitude 18:12:33 41° 332° (NNW) 853 2.7 -6.7°
Drops below altitude 10° 18:16:47 10° 43° (NE) 1,955 3.8 -7.4°
Sets 18:19:14 0° 51° (NE) 2,885 4.6 -7.8°
